Temperature
13 13 13 13 12 12 12 12 12 12 12 12 12 12 12 12 12 11 11 11 11 11 11 11 11 11 11 11 11 10 10 10 10 10 10 10 10 10 10 10 10 10 10
13 13 13 12 12 12 12 12 12 12 12 12 11 11 11 11 11 11 11 11 11 11 11 11 11 11 11 10 10 10 10 10 10 10 10 10 10 10 10 10 10 10 10
13 13 13 12 12 12 12 12 11 11 11 11 11 11 11 11 11 11 11 11 11 11 11 11 11 11 10 10 10 10 10 10 9 9 10 10 10 10 9 9 9 9 9
13 13 12 12 12 11 11 11 11 11 11 11 11 11 11 11 10 10 10 10 10 10 10 10 10 10 10 10 10 10 9 9 9 9 9 9 9 9 9 9 9 9 9
13 13 12 12 11 11 11 11 11 11 11 11 11 10 10 10 10 10 10 10 10 10 10 10 10 10 10 9 9 9 9 9 9 9 9 9 9 9 9 9 9 9 9
12 12 12 12 11 11 11 11 10 10 10 10 10 10 10 10 10 10 9 9 9 9 9 9 10 10 9 9 9 9 9 9 8 8 8 8 8 8 8 8 8 8 8
12 12 12 11 11 11 11 10 10 10 10 10 10 10 9 9 9 9 9 9 9 9 9 9 9 9 9 9 9 9 8 8 8 8 8 8 8 8 8 8 8 8 8
12 11 11 11 11 10 10 10 10 10 10 9 9 9 9 9 9 9 8 8 8 8 8 8 8 8 8 8 8 8 8 8 8 7 7 7 7 7 7 7 7 7 7
11 11 11 11 10 10 10 10 9 9 9 9 9 9 8 8 8 8 8 8 8 8 8 7 8 8 8 8 8 8 8 8 7 7 7 7 7 7 7 7 7 7 7
11 11 10 10 10 10 10 9 9 9 9 9 8 8 8 8 8 7 7 7 7 7 7 7 7 7 7 7 7 7 7 7 7 7 7 7 7 7 6 6 6 6 6
11 10 10 10 10 10 9 9 9 9 8 8 8 8 7 7 7 7 7 7 7 7 7 7 7 7 7 7 7 6 6 6 6 6 6 6 6 6 6 6 6 6 5
10 10 10 10 9 9 9 9 8 8 8 7 7 7 7 7 6 6 6 6 6 6 6 6 6 6 6 6 6 6 6 6 6 6 6 6 6 6 6 6 6 5 5
10 10 9 9 9 9 8 8 8 8 7 7 7 7 6 6 6 6 6 6 6 6 6 6 6 5 5 5 5 5 5 5 5 5 5 5 5 5 5 5 5 5 5
10 9 9 9 8 8 8 8 7 7 7 7 6 6 6 6 6 6 6 6 6 5 5 5 5 5 5 5 5 5 5 5 5 4 4 4 4 4 4 5 5 5 4
9 9 8 8 8 8 7 7 7 7 7 6 6 6 6 6 6 6 5 5 5 5 5 5 5 5 5 5 5 5 4 4 4 4 4 4 4 4 4 4 4 4 4
8 8 8 8 8 7 7 7 7 6 6 6 6 6 6 6 5 5 5 5 5 4 4 4 4 4 4 4 4 4 4 4 4 3 3 3 3 3 3 3 3 3 3
8 8 8 7 7 7 7 7 6 6 6 6 5 5 5 5 5 5 5 4 4 4 4 4 4 4 4 3 3 3 3 3 3 3 3 3 3 3 3 3 3 3 3
8 7 7 7 7 7 6 6 6 6 5 5 5 5 5 5 5 4 4 4 4 4 4 4 4 3 3 3 3 3 3 3 3 3 2 2 2 2 2 2 2 2 2
7 7 7 7 6 6 6 6 6 5 5 5 5 5 5 5 4 4 4 4 4 4 4 3 3 3 3 3 3 3 2 2 2 2 2 2 2 2 2 2 2 2 2
7 7 6 6 6 6 6 5 5 5 5 5 5 4 4 4 4 4 4 4 4 3 3 3 3 3 3 3 2 2 2 2 2 2 2 2 1 1 1 1 1 1 1
6 6 6 6 6 5 5 5 5 5 5 4 4 4 4 4 4 4 4 3 3 3 3 3 3 3 2 2 2 2 2 2 1 1 1 1 1 1 1 1 1 1 1
6 6 6 6 5 5 5 5 5 4 4 4 4 4 4 4 4 3 3 3 3 3 3 3 2 2 2 2 2 1 1 1 1 1 1 1 1 1 1 1 1 1 1
6 6 6 5 5 5 5 4 4 4 4 4 4 3 3 3 3 3 3 3 3 3 2 2 2 2 2 2 1 1 1 1 1 1 1 1 1 1 0 0 0 0 0
6 5 5 5 5 5 4 4 4 4 4 4 3 3 3 3 3 3 3 3 2 2 2 2 2 2 1 1 1 1 1 1 1 0 0 0 0 0 0 0 0 0 0
5 5 5 5 4 4 4 4 4 4 3 3 3 3 3 2 2 2 2 2 2 2 2 1 1 1 1 1 1 1 1 1 0 0 0 0 0 0 -0 -0 -0 -0 -0
5 5 4 4 4 4 4 4 3 3 3 3 3 2 2 2 2 2 2 2 2 1 1 1 1 1 1 1 1 0 0 0 0 0 -0 -0 -0 -0 -0 -0 -0 -0 -1
Wind_Speed
2 2 1 1 1 1 1 1 1 1 0 0 1 1 1 1 1 1 1 1 1 1 1 1 1 1 0 0 0 1 1 1 2 3 2 2 2 3 5 5 5 4 4
3 3 2 2 2 1 1 1 1 1 1 1 1 1 1 1 1 1 1 1 2 2 2 1 2 1 1 1 1 1 1 1 2 2 2 2 2 3 2 3 4 4 4
3 3 3 3 3 3 2 1 1 1 1 1 1 1 1 1 1 1 1 2 2 2 2 2 2 1 1 1 1 1 1 1 1 1 2 2 2 2 2 3 3 3 4
3 3 4 4 4 3 2 1 1 1 1 1 1 1 1 0 1 1 1 1 1 2 2 2 3 3 3 3 2 2 1 1 1 1 2 3 2 2 1 2 3 2 3
3 3 4 4 3 2 2 1 1 1 1 1 1 1 0 0 0 0 1 1 1 1 2 2 3 3 3 2 2 2 2 1 1 1 2 2 3 2 2 2 3 3 3
2 3 3 3 3 3 2 2 2 1 1 1 1 1 1 0 1 1 0 0 0 1 2 2 2 2 3 3 3 2 2 2 3 2 2 3 4 3 3 2 2 2 3
3 2 2 3 4 3 3 2 2 2 1 1 1 1 1 1 1 1 1 1 0 1 2 2 2 2 2 2 3 2 2 3 3 3 3 4 4 4 3 3 3 3 4
3 3 3 3 3 3 3 3 2 2 2 1 1 1 1 1 1 0 1 1 1 1 2 2 3 3 3 2 1 1 2 2 3 2 3 4 4 3 3 3 4 3 3
2 3 3 4 4 4 4 3 2 2 2 1 1 1 1 2 1 0 1 1 0 2 2 2 3 3 4 1 1 0 2 3 3 3 3 4 5 4 2 1 1 2 4
3 3 3 4 5 5 4 3 2 2 2 2 1 1 1 2 2 1 1 1 1 2 2 3 3 3 3 1 1 1 1 3 2 3 3 5 4 4 4 1 2 2 3
2 2 2 3 4 4 4 3 3 2 2 2 1 1 1 2 2 2 1 1 1 1 1 2 2 3 2 1 1 1 2 1 1 1 2 2 3 2 3 3 2 2 3
2 2 2 2 2 3 4 3 3 3 2 2 1 1 1 2 2 2 2 1 1 2 2 2 2 3 2 2 1 2 2 2 1 1 2 2 3 3 3 3 4 4 4
2 3 2 2 2 3 4 4 3 3 3 2 2 2 2 2 2 2 2 2 1 1 1 2 2 3 2 2 3 3 2 2 1 1 2 3 3 4 3 3 4 3 4
3 3 2 2 2 2 2 3 3 3 3 3 3 3 3 2 2 1 1 1 1 1 1 1 2 2 2 2 2 2 1 0 0 1 3 3 3 3 3 3 3 3 3
3 2 2 2 3 2 2 2 3 4 5 5 5 4 4 4 4 4 2 1 1 1 0 1 1 1 2 1 1 1 1 1 1 2 2 3 3 3 3 3 3 2 2
3 3 2 2 2 2 2 1 1 2 4 4 5 5 4 4 4 4 3 2 2 1 1 0 1 1 1 2 2 2 2 2 2 2 2 3 3 3 4 3 3 3 3
4 3 3 3 3 3 3 3 1 1 1 2 3 4 4 4 4 4 3 2 2 2 1 2 2 2 2 2 2 2 3 3 2 2 3 3 3 4 4 4 4 3 4
3 4 3 3 4 3 3 3 3 3 1 1 2 3 3 3 3 4 4 2 1 1 2 2 3 3 3 2 2 3 3 3 2 3 3 3 3 3 4 4 4 4 4
3 3 3 3 3 3 3 3 2 2 2 1 1 1 2 2 2 2 4 2 2 3 3 3 3 3 3 3 3 3 3 3 3 3 3 3 3 4 4 4 4 6 5
3 4 3 3 3 3 3 3 3 2 2 2 2 2 1 1 1 2 2 2 2 3 3 3 3 3 3 3 3 3 3 3 3 3 3 4 4 4 5 5 5 5 5
3 3 4 3 3 3 3 3 3 3 3 3 3 3 3 3 3 3 3 3 3 4 4 3 3 3 3 2 2 3 4 4 4 4 4 4 4 4 5 5 5 5 5
3 3 3 3 3 3 3 3 3 3 3 3 2 2 3 2 2 2 3 3 3 3 3 3 3 3 3 3 3 3 4 4 4 4 4 5 4 5 5 5 5 5 5
3 3 3 3 3 3 3 3 3 3 3 3 2 2 2 2 2 3 3 3 3 3 3 2 2 2 3 4 4 4 4 5 5 4 5 5 4 4 4 5 5 5 5
3 3 3 3 3 3 3 3 3 3 3 3 3 3 3 3 3 3 3 3 2 3 3 3 3 4 4 4 5 6 6 7 7 6 5 4 5 5 4 4 5 5 5
3 3 3 3 3 3 3 3 3 3 3 3 3 3 3 2 2 2 2 2 3 3 3 3 3 4 5 6 6 6 7 8 7 6 5 3 4 4 4 5 5 5 4
3 3 3 3 3 3 3 3 3 3 3 3 3 3 3 3 3 3 2 2 2 2 2 3 4 4 5 5 6 6 6 6 6 6 4 3 3 3 4 4 5 4 4
Wind_Direction
208 213 217 213 213 189 190 245 248 253 262 191 207 184 179 167 147 125 177 181 178 225 218 192 248 240 228 249 171 156 184 175 227 279 288 308 326 327 330 333 329 323 325
212 200 205 196 180 191 229 250 256 250 224 192 171 173 197 190 176 165 193 212 204 226 244 225 251 257 256 232 189 202 222 206 200 270 298 313 301 301 314 331 329 329 324
199 194 197 191 191 207 221 226 220 224 219 192 162 163 200 203 200 204 197 218 224 230 233 227 239 217 246 246 231 231 241 249 217 238 293 297 296 306 324 323 323 320 322
197 197 203 203 204 210 214 207 203 203 188 186 194 202 206 228 216 210 196 222 253 262 258 240 236 224 226 228 236 234 237 247 270 258 290 302 295 293 317 313 318 320 318
199 203 212 205 194 187 187 191 191 196 194 180 161 153 140 177 231 263 223 205 235 287 294 276 252 247 244 234 244 233 212 218 246 271 282 298 302 306 287 284 295 305 309
192 208 200 178 174 175 175 166 157 163 152 132 134 148 149 250 351 8 109 134 193 297 299 301 290 272 278 281 277 252 216 215 236 247 268 274 278 277 280 283 289 309 302
189 195 191 177 175 182 172 149 157 173 151 141 162 145 200 256 318 23 111 127 153 257 283 296 304 311 310 269 284 291 276 276 244 230 246 259 265 261 261 277 272 263 266
188 195 196 183 180 171 160 163 174 173 167 176 201 208 230 271 313 28 153 135 217 262 271 278 273 285 290 263 262 307 299 298 271 251 242 261 269 263 244 251 261 277 282
203 208 201 187 180 174 176 183 180 169 169 183 193 192 217 277 317 330 129 157 248 283 284 287 285 276 289 298 142 250 313 315 328 322 317 316 317 313 308 326 296 290 293
228 219 203 187 177 180 186 184 182 177 185 175 178 198 212 267 296 284 140 165 242 291 308 302 297 298 318 346 166 180 269 292 323 341 347 345 343 335 332 309 248 264 280
228 195 185 191 182 175 171 169 167 169 161 158 170 264 262 270 287 286 234 181 210 254 292 304 304 319 333 357 18 216 260 295 327 328 336 343 346 337 323 312 279 247 256
183 169 178 185 183 169 160 159 157 157 159 175 181 274 293 291 290 279 263 240 212 208 252 277 301 329 356 18 21 344 6 40 40 14 355 338 327 316 310 308 303 290 265
180 185 186 176 174 163 163 164 165 169 177 194 196 221 263 282 293 295 286 273 274 241 250 281 320 348 14 14 7 11 34 48 38 1 324 307 301 299 311 320 321 314 308
182 188 183 174 177 169 173 179 182 191 194 202 207 218 234 251 264 269 264 280 295 281 284 321 347 3 11 2 5 359 4 342 326 280 291 300 314 321 319 318 315 321 319
186 186 187 188 188 192 199 203 201 210 204 205 212 208 208 232 245 226 193 204 209 242 59 34 16 359 346 332 330 324 325 337 316 297 300 312 315 314 311 313 307 309 302
187 196 196 193 195 191 188 247 251 222 221 216 209 204 220 224 221 214 214 217 203 156 115 181 262 266 274 285 289 298 291 294 292 293 295 295 299 301 304 308 305 295 290
196 200 200 197 196 194 189 184 216 315 297 222 216 218 214 208 210 213 212 214 204 143 168 220 238 249 255 267 274 274 277 280 281 286 288 290 296 300 303 301 300 298 294
198 202 199 201 199 197 195 192 189 191 214 293 276 238 221 212 213 207 191 162 222 201 227 233 242 247 247 253 262 271 275 281 281 283 286 289 292 295 297 297 292 290 290
200 206 204 203 200 195 187 184 184 187 194 210 293 281 240 221 198 187 170 181 214 234 236 239 242 245 245 248 256 263 267 273 281 283 283 285 287 288 288 289 289 291 292
210 211 196 190 188 183 181 185 190 193 197 201 213 228 212 137 194 221 214 216 222 238 235 237 243 248 247 248 254 262 272 275 277 277 282 285 283 280 281 284 285 287 285
201 204 195 188 190 188 188 194 197 196 203 214 227 224 192 193 211 219 221 226 231 240 242 237 241 247 250 253 261 269 268 268 271 274 279 281 282 280 280 281 284 282 283
190 193 192 195 197 196 195 196 195 200 210 215 232 225 198 195 217 229 235 240 237 240 240 234 241 243 246 246 250 256 268 276 277 277 277 279 279 279 281 282 283 285 284
185 188 193 198 199 196 190 191 194 200 209 217 214 208 209 222 232 237 243 249 248 251 249 237 242 256 264 261 256 248 254 262 264 265 276 282 282 280 279 278 279 282 281
187 189 193 196 193 191 197 204 205 207 208 211 213 214 218 228 237 244 248 255 254 262 253 247 250 257 266 273 270 267 268 274 276 270 265 272 282 285 284 286 284 281 279
193 197 197 198 199 202 205 208 208 207 209 214 217 220 224 233 242 250 249 250 251 257 257 258 262 262 267 273 276 278 283 287 289 287 281 273 277 282 285 285 286 291 292
202 203 204 199 201 204 207 211 212 211 215 221 221 221 223 233 240 244 247 249 256 260 261 264 269 272 279 280 282 290 294 294 295 298 295 279 277 286 291 292 294 292 291
Height
1521 1522 1522 1522 1523 1523 1523 1523 1523 1523 1523 1523 1523 1523 1523 1523 1524 1524 1524 1525 1525 1525 1525 1525 1525 1524 1524 1523 1523 1522 1522 1521 1519 1519 1518 1517 1517 1516 1515 1514 1513 1513 1512
1519 1519 1520 1520 1521 1521 1521 1521 1521 1521 1521 1521 1521 1521 1521 1521 1521 1521 1521 1522 1522 1522 1522 1522 1522 1522 1522 1521 1521 1520 1520 1519 1518 1516 1516 1515 1514 1513 1512 1511 1511 1510 1509
1517 1517 1517 1518 1518 1519 1519 1519 1519 1519 1519 1519 1519 1518 1518 1518 1518 1518 1518 1519 1519 1519 1519 1519 1519 1519 1519 1519 1518 1518 1517 1516 1516 1515 1513 1512 1511 1511 1510 1509 1508 1508 1507
1514 1514 1515 1515 1516 1516 1516 1516 1516 1517 1516 1516 1516 1516 1516 1516 1516 1516 1516 1516 1516 1516 1516 1517 1517 1517 1517 1516 1516 1515 1515 1514 1513 1512 1511 1510 1509 1508 1507 1506 1505 1505 1504
1511 1511 1512 1512 1513 1514 1514 1514 1514 1514 1514 1514 1514 1514 1514 1514 1514 1513 1513 1513 1513 1513 1513 1514 1514 1514 1514 1514 1513 1512 1512 1511 1510 1509 1508 1507 1506 1505 1504 1503 1502 1501 1500
1508 1508 1509 1510 1510 1511 1512 1512 1512 1512 1512 1512 1512 1512 1511 1511 1511 1511 1511 1510 1510 1510 1510 1511 1511 1511 1511 1510 1510 1510 1509 1508 1507 1506 1505 1504 1503 1502 1501 1500 1499 1498 1496
1505 1506 1506 1507 1508 1508 1509 1509 1509 1510 1510 1509 1509 1509 1509 1508 1508 1508 1508 1508 1508 1507 1507 1507 1507 1507 1507 1507 1506 1506 1506 1505 1505 1504 1502 1501 1500 1499 1498 1497 1496 1495 1493
1503 1503 1504 1504 1505 1505 1506 1506 1507 1507 1507 1507 1506 1506 1506 1506 1506 1505 1505 1505 1505 1505 1505 1504 1504 1504 1504 1503 1503 1502 1502 1502 1501 1500 1499 1498 1498 1496 1495 1494 1493 1491 1490
1500 1501 1501 1501 1502 1502 1503 1503 1504 1504 1504 1504 1504 1504 1504 1503 1503 1503 1503 1502 1502 1502 1501 1501 1501 1500 1500 1500 1499 1499 1498 1498 1497 1496 1496 1495 1494 1493 1492 1490 1489 1487 1485
1497 1497 1498 1499 1499 1499 1500 1500 1501 1501 1501 1501 1501 1501 1501 1501 1501 1501 1500 1500 1499 1499 1498 1498 1497 1497 1496 1496 1496 1495 1494 1493 1493 1492 1492 1491 1490 1489 1488 1487 1485 1484 1482
1494 1494 1495 1496 1496 1496 1497 1498 1498 1499 1499 1498 1499 1498 1498 1498 1498 1498 1497 1497 1496 1495 1495 1494 1494 1493 1492 1492 1492 1491 1491 1490 1489 1488 1487 1486 1485 1484 1483 1482 1481 1480 1479
1491 1491 1492 1493 1493 1493 1494 1494 1495 1495 1495 1495 1495 1495 1495 1495 1495 1494 1494 1494 1493 1492 1492 1491 1490 1490 1489 1489 1488 1488 1487 1487 1486 1484 1483 1482 1481 1480 1479 1478 1477 1476 1475
1487 1488 1488 1489 1490 1490 1490 1491 1491 1492 1492 1492 1492 1492 1492 1492 1492 1492 1491 1491 1490 1489 1488 1488 1487 1487 1486 1486 1485 1484 1484 1483 1482 1481 1479 1478 1477 1476 1475 1474 1473 1471 1470
1483 1484 1484 1485 1486 1486 1487 1487 1487 1487 1488 1488 1488 1488 1488 1488 1488 1488 1488 1487 1487 1486 1485 1485 1484 1484 1483 1483 1482 1481 1480 1479 1478 1478 1476 1475 1474 1473 1471 1470 1468 1467 1465
1480 1480 1481 1481 1482 1482 1482 1483 1483 1484 1484 1484 1484 1485 1485 1485 1485 1485 1485 1484 1483 1483 1482 1481 1481 1480 1479 1479 1478 1478 1477 1476 1475 1474 1473 1471 1470 1469 1468 1466 1465 1464 1462
1476 1476 1477 1477 1478 1478 1478 1479 1479 1480 1480 1481 1481 1482 1481 1482 1482 1482 1481 1481 1480 1480 1479 1477 1477 1476 1476 1475 1474 1474 1473 1473 1472 1471 1470 1468 1467 1465 1464 1463 1462 1460 1459
1472 1472 1473 1473 1473 1474 1474 1474 1475 1476 1476 1477 1477 1477 1478 1478 1478 1478 1477 1477 1477 1476 1475 1474 1473 1473 1472 1472 1471 1471 1470 1469 1469 1467 1466 1465 1464 1462 1461 1459 1458 1456 1455
1469 1469 1469 1469 1469 1470 1470 1470 1471 1471 1471 1471 1473 1473 1473 1473 1474 1474 1473 1473 1472 1472 1471 1470 1470 1469 1469 1468 1467 1467 1466 1466 1465 1464 1463 1461 1460 1459 1457 1456 1454 1453 1452
1465 1465 1465 1465 1465 1466 1466 1467 1467 1467 1467 1468 1468 1469 1469 1469 1469 1469 1469 1469 1468 1468 1467 1467 1466 1466 1465 1464 1464 1463 1462 1462 1461 1460 1458 1457 1456 1454 1453 1452 1451 1449 1448
1461 1461 1461 1461 1462 1462 1462 1463 1463 1463 1464 1464 1464 1464 1465 1465 1465 1465 1465 1464 1464 1463 1463 1462 1462 1462 1461 1460 1460 1459 1458 1457 1456 1455 1454 1453 1452 1450 1449 1448 1446 1445 1444
1457 1458 1458 1458 1458 1458 1459 1459 1459 1460 1460 1460 1461 1461 1461 1461 1461 1461 1461 1460 1460 1459 1459 1458 1458 1457 1457 1456 1455 1455 1454 1453 1452 1451 1450 1448 1447 1446 1445 1444 1442 1441 1440
1454 1454 1454 1454 1455 1455 1455 1456 1456 1456 1457 1457 1457 1458 1457 1457 1457 1457 1456 1456 1456 1455 1454 1454 1453 1452 1452 1452 1451 1450 1449 1448 1447 1446 1445 1444 1443 1442 1440 1439 1438 1437 1435
1451 1451 1451 1451 1451 1452 1452 1452 1453 1453 1453 1453 1454 1454 1453 1453 1453 1453 1452 1452 1451 1450 1450 1449 1448 1448 1448 1447 1447 1446 1445 1444 1443 1442 1441 1440 1438 1437 1436 1435 1434 1432 1431
1447 1447 1447 1447 1448 1448 1448 1449 1449 1449 1449 1450 1450 1450 1449 1449 1449 1448 1448 1447 1447 1446 1445 1444 1444 1443 1443 1443 1442 1441 1441 1440 1439 1438 1437 1435 1434 1433 1432 1430 1429 1428 1427
1444 1444 1444 1444 1444 1444 1444 1445 1445 1445 1446 1446 1446 1446 1446 1445 1445 1444 1444 1443 1442 1442 1441 1440 1440 1439 1439 1438 1438 1437 1436 1436 1435 1434 1433 1432 1431 1429 1428 1426 1425 1424 1423
1440 1440 1440 1440 1440 1440 1441 1441 1441 1441 1442 1442 1442 1442 1442 1441 1441 1440 1440 1439 1438 1437 1437 1436 1436 1436 1435 1434 1433 1433 1432 1431 1431 1430 1429 1428 1427 1425 1424 1422 1421 1420 1419